Weather in Rubtsovo

Russia / Kostroma Oblast     57°48′24″N   42°59′16″E
temp.,
°C
wind,
m/s
gust,
m/s
humid.,
%
clouds,
%
prec.,
mm/h
press.,
hPa
HPBL,
m
14 june, mon
mon1400:00+14wsw119511 0.5 100911
03:00+14wsw119619 0.5 101011
06:00+16wsw238913 0.0 1012152
09:00+22wsw34608 0.0 1013782
12:00+25wnw454231 0.4 10132307
15:00+24sw245495 0.4 1013765
18:00+23w256260 0.0 1013437
21:00+19wsw1276100 0.0 101413
15 june, tue
tue1500:00+15wnw118811 0.0 101411
03:00+14nw119241 0.0 101411
06:00+18ne00764 0.0 1014120
09:00+24s22565 0.0 1014849
12:00+26s334364 0.0 10122243
15:00+24ssw355597 0.0 1011661
18:00+22ssw2373100 0.0 1010101
21:00+19ssw22831 0.0 101038
16 june, wed
wed1600:00+16sw229121 0.8 101041
03:00+15ssw11964 2.5 100915
06:00+18s1190100 0.2 100985
09:00+20nw2486100 3.1 1008233
12:00+17nnw4997100 3.6 1010444
15:00+17nnw498473 5.0 1012807
18:00+20nnw39529 0.1 10112092
21:00+15nw41354100 0.1 1014413
17 june, thu
thu1700:00+13nw3115843 0.0 1016265
03:00+10nw310700 0.0 1017216
06:00+12nw39630 0.0 1019287
09:00+18nw46420 0.0 10201189
12:00+21nw57335 0.0 10202198
15:00+22nw583459 0.0 10212633
18:00+21nw36465 0.0 10211708
21:00+15wnw23700 0.0 102343
18 june, fri
fri1800:00+12nw24790 0.0 102467
03:00+11nw23832 0.0 102551
06:00+15wnw24705 0.0 1026156
09:00+21wnw24495 0.0 1025732
12:00+25w35375 0.0 10241782
15:00+26w453829 0.0 10231981
18:00+24w465361 0.0 1023901
21:00+18wsw38815 0.0 1023146